Location: Goudex
(43.3760°N, 0.9543°E)
Time: 21:34:10
(UTC+00:00)

Cosmos 1437 - Pass Details

Date: 20 November 2019
Orbit: 380 x 383 km, 81.2° (Epoch: 11 December)

Event Time Altitude Azimuth Distance (km) Brightness Sun altitude
Rises 06:13:52 0° 229° (SW) 2,250 6.2 -7.8°
Reaches altitude 10° 06:16:35 10° 257° (WSW) 1,405 4.9 -7.3°
Maximum altitude 06:18:14 14° 290° (WNW) 1,208 4.4 -7.0°
Drops below altitude 10° 06:19:54 10° 323° (NW) 1,413 4.9 -6.7°
Sets 06:22:40 0° 351° (N) 2,275 6.2 -6.3°
